Weather History for Thermopolis, WY

Change the Weather History Date:

Tuesday, June 10, 2014

  Actual Average (KWRL) Record (KWRL)
Temperature  
Mean Temperature 60 °F 63 °F  
Max Temperature 69 °F 78 °F 95 °F (1976)
Min Temperature 50 °F 48 °F 38 °F (2005)
Degree Days  
Heating Degree Days 6 4  
Month to date heating degree days 49  
Since 1 June heating degree days 49  
Since 1 July heating degree days 7825  
Cooling Degree Days 0 2  
Month to date cooling degree days 15  
Year to date cooling degree days 27  
Since 1 June cooling degree days 15  
Growing Degree Days 10 (Base 50)    
Moisture  
Dew Point 36 °F    
Average Humidity 47    
Maximum Humidity 71    
Minimum Humidity 23    
Precipitation  
Precipitation 0.00 in 0.05 in 0.43 in (1984)
Month to date precipitation 0.50  
Year to date precipitation 3.66  
Sea Level Pressure  
Sea Level Pressure 30.07 in    
Wind  
Wind Speed 12 mph (NW)    
Max Wind Speed 44 mph    
Max Gust Speed 48 mph    
Visibility 10 miles    
Events      
T = Trace of Precipitation, MM = Missing Value Source: NWS Daily Summary

Daily Weather History Graph

Daily Weather History Graph

Search for Another Location

Airport:

Trip Planner

Search our weather history database for the weather conditions in past years. The results will help you decide how hot, cold, wet, or windy it might be!

Date:

Astronomy

Jun. 10, 2014 Rise Set
Actual Time 5:31 AM MDT 8:53 PM MDT
Civil Twilight 4:56 AM MDT 9:28 PM MDT
Nautical Twilight 4:10 AM MDT 10:15 PM MDT
Astronomical Twilight 3:12 AM MDT 11:12 PM MDT
Moon 6:17 PM MDT (6/10) 3:44 AM MDT (6/10)
Length of Visible Light 16h 32m
Length of Day
15h 21m
Waxing Gibbous, 92% of the Moon is Illuminated
Jun 10
Waxing Gibbous
Jun 12
Full
Jun 19
Last Quarter
Jun 27
New
Jul 5
First Quarter

Hourly Weather History & Observations

Time (MDT) Temp. Dew Point Humidity Pressure Visibility Wind Dir Wind Speed Gust Speed Precip Events Conditions
12:15 AM 62.6 °F 26.6 °F 26% 30.14 in 10.0 mi NW 4.6 mph - N/A   Clear
12:35 AM 62.6 °F 26.6 °F 26% 30.13 in 10.0 mi WNW 3.5 mph - N/A   Clear
12:55 AM 60.8 °F 26.6 °F 27% 30.13 in 10.0 mi SW 8.1 mph - N/A   Clear
1:15 AM 60.8 °F 28.4 °F 29% 30.12 in 10.0 mi WSW 12.7 mph - N/A   Clear
1:35 AM 60.8 °F 28.4 °F 29% 30.12 in 10.0 mi SW 9.2 mph - N/A   Clear
1:55 AM 59.0 °F 23.0 °F 25% 30.11 in 10.0 mi SSW 15.0 mph - N/A   Clear
2:15 AM 59.0 °F 23.0 °F 25% 30.11 in 10.0 mi SSW 16.1 mph - N/A   Clear
2:35 AM 59.0 °F 23.0 °F 25% 30.11 in 10.0 mi SSW 11.5 mph - N/A   Clear
3:15 AM 59.0 °F 23.0 °F 25% 30.10 in 10.0 mi South 13.8 mph 19.6 mph N/A   Scattered Clouds
3:35 AM 59.0 °F 24.8 °F 27% 30.10 in 10.0 mi South 11.5 mph - N/A   Scattered Clouds
3:55 AM 59.0 °F 24.8 °F 27% 30.11 in 10.0 mi West 10.4 mph - N/A   Clear
4:15 AM 55.4 °F 24.8 °F 31% 30.10 in 10.0 mi SW 10.4 mph - N/A   Clear
4:35 AM 51.8 °F 30.2 °F 44% 30.11 in 10.0 mi West 9.2 mph - N/A   Clear
4:55 AM 51.8 °F 32.0 °F 47% 30.11 in 10.0 mi West 6.9 mph - N/A   Clear
5:15 AM 51.8 °F 33.8 °F 50% 30.11 in 10.0 mi WNW 6.9 mph - N/A   Clear
5:35 AM 51.8 °F 33.8 °F 50% 30.11 in 10.0 mi NW 6.9 mph - N/A   Clear
5:55 AM 53.6 °F 33.8 °F 47% 30.11 in 10.0 mi NNW 10.4 mph - N/A   Clear
6:15 AM 53.6 °F 33.8 °F 47% 30.12 in 10.0 mi NW 6.9 mph - N/A   Clear
6:35 AM 53.6 °F 35.6 °F 51% 30.12 in 10.0 mi NW 8.1 mph - N/A   Clear
6:55 AM 53.6 °F 35.6 °F 51% 30.12 in 10.0 mi NW 6.9 mph - N/A   Clear
7:15 AM 53.6 °F 35.6 °F 51% 30.12 in 10.0 mi NW 6.9 mph - N/A   Clear
7:35 AM 53.6 °F 35.6 °F 51% 30.12 in 10.0 mi NNW 5.8 mph - N/A   Clear
7:55 AM 53.6 °F 37.4 °F 54% 30.12 in 10.0 mi NNW 6.9 mph - N/A   Clear
8:15 AM 53.6 °F 35.6 °F 51% 30.11 in 10.0 mi North 3.5 mph - N/A   Clear
8:35 AM 53.6 °F 37.4 °F 54% 30.11 in 10.0 mi NNW 6.9 mph - N/A   Clear
8:55 AM 55.4 °F 39.2 °F 54% 30.11 in 10.0 mi NNW 8.1 mph - N/A   Clear
9:15 AM 55.4 °F 39.2 °F 54% 30.11 in 10.0 mi NW 10.4 mph - N/A   Clear
9:35 AM 55.4 °F 39.2 °F 54% 30.12 in 10.0 mi NW 9.2 mph - N/A   Clear
9:55 AM 55.4 °F 39.2 °F 54% 30.11 in 10.0 mi NNW 3.5 mph - N/A   Clear
10:15 AM 57.2 °F 41.0 °F 55% 30.10 in 10.0 mi North 3.5 mph - N/A   Clear
10:35 AM 60.8 °F 41.0 °F 48% 30.10 in 10.0 mi WNW 5.8 mph - N/A   Scattered Clouds
10:55 AM 59.0 °F 42.8 °F 55% 30.10 in 10.0 mi NNW 6.9 mph - N/A   Scattered Clouds
11:15 AM 60.8 °F 42.8 °F 52% 30.10 in 10.0 mi Calm Calm - N/A   Clear
11:55 AM 62.6 °F 39.2 °F 42% 30.08 in 10.0 mi SE 8.1 mph - N/A   Clear
12:15 PM 64.4 °F 33.8 °F 32% 30.08 in 10.0 mi ENE 4.6 mph - N/A   Clear
12:35 PM 64.4 °F 37.4 °F 37% 30.07 in 10.0 mi ESE 8.1 mph - N/A   Scattered Clouds
12:55 PM 66.2 °F 35.6 °F 32% 30.06 in 10.0 mi East 8.1 mph - N/A   Scattered Clouds
2:55 PM 69.8 °F 30.2 °F 23% 30.00 in 10.0 mi WSW 6.9 mph - N/A   Clear
3:15 PM 64.4 °F 42.8 °F 45% 29.99 in 10.0 mi NNW 19.6 mph 25.3 mph N/A   Clear
3:35 PM 62.6 °F 42.8 °F 48% 29.99 in 10.0 mi NNW 20.7 mph - N/A   Scattered Clouds
3:55 PM 64.4 °F 42.8 °F 45% 29.99 in 10.0 mi North 19.6 mph 24.2 mph N/A   Scattered Clouds
4:15 PM 62.6 °F 41.0 °F 45% 30.00 in 10.0 mi NW 26.5 mph - N/A   Scattered Clouds
4:35 PM 60.8 °F 41.0 °F 48% 30.02 in 10.0 mi NW 26.5 mph 34.5 mph N/A   Mostly Cloudy
5:15 PM 62.6 °F 42.8 °F 48% 30.00 in 10.0 mi NNW 26.5 mph - N/A   Clear
5:35 PM 62.6 °F 42.8 °F 48% 30.00 in 10.0 mi NNW 28.8 mph - N/A   Clear
5:55 PM 62.6 °F 41.0 °F 45% 30.01 in 10.0 mi NW 28.8 mph - N/A   Clear
6:15 PM 60.8 °F 39.2 °F 45% 30.00 in 10.0 mi NNW 34.5 mph 41.4 mph N/A   Clear
6:35 PM 60.8 °F 39.2 °F 45% 29.99 in 10.0 mi NNW 43.7 mph 47.2 mph N/A   Clear
6:55 PM 55.4 °F 42.8 °F 63% 30.00 in 10.0 mi NNW 35.7 mph - N/A   Clear
7:15 PM 53.6 °F 42.8 °F 67% 30.00 in 10.0 mi NNW 32.2 mph 48.3 mph N/A   Clear
7:35 PM 55.4 °F 42.8 °F 63% 30.00 in 10.0 mi NNW 31.1 mph - N/A   Clear
7:55 PM 53.6 °F 42.8 °F 67% 30.01 in 10.0 mi NNW 29.9 mph - N/A   Clear
8:15 PM 53.6 °F 42.8 °F 67% 30.01 in 10.0 mi NNW 26.5 mph - N/A   Clear
8:35 PM 53.6 °F 42.8 °F 67% 30.02 in 10.0 mi NNW 21.9 mph 25.3 mph N/A   Clear
8:55 PM 51.8 °F 42.8 °F 71% 30.02 in 10.0 mi NNW 23.0 mph - N/A   Clear
9:15 PM 51.8 °F 42.8 °F 71% 30.03 in 10.0 mi NNW 20.7 mph - N/A   Clear
9:35 PM 51.8 °F 42.8 °F 71% 30.03 in 10.0 mi NNW 20.7 mph - N/A   Clear
10:15 PM 50.0 °F 37.4 °F 62% 30.05 in 10.0 mi North 21.9 mph - N/A   Clear
10:35 PM 50.0 °F 37.4 °F 62% 30.06 in 10.0 mi North 17.3 mph - N/A   Clear
10:55 PM 51.8 °F 37.4 °F 58% 30.06 in 10.0 mi North 17.3 mph - N/A   Clear
11:15 PM 51.8 °F 35.6 °F 54% 30.06 in 10.0 mi North 16.1 mph - N/A   Clear
11:35 PM 51.8 °F 35.6 °F 54% 30.06 in 10.0 mi North 13.8 mph - N/A   Clear
11:55 PM 51.8 °F 35.6 °F 54% 30.06 in 10.0 mi North 10.4 mph - N/A   Clear